DW7214 Weather Reports


Display with metric or nautical units.
time (UTC)temp
F
wind
direction
speed
MPH
gust
MPH
rain 1hr
in
rain 24hr
in
rain mn
in
humidity
%
barometer
mb
20260831114520 49 239 0.0 0.0 0.00 0.00 0.00 88 1013.3
20260831113024 49 239 0.0 0.0 0.00 0.00 0.00 89 1013.4
20260831111528 50 239 0.0 0.0 0.00 0.00 0.00 88 1013.4
20260831110031 50 239 0.0 0.0 0.00 0.00 0.00 87 1013.4
20260831104522 50 239 0.0 0.0 0.00 0.00 0.00 87 1013.4
20260831103019 51 239 0.0 0.0 0.00 0.00 0.00 86 1013.5
20260831101527 51 239 0.0 0.0 0.00 0.00 0.00 86 1013.6
20260831100446 52 239 0.0 0.0 0.00 0.00 0.00 86 1013.8
20260831094538 52 239 0.0 0.0 0.00 0.00 0.00 85 1013.9
20260831093023 52 239 0.0 0.0 0.00 0.00 0.00 84 1014.1
20260831091524 53 239 0.0 0.0 0.00 0.00 0.00 84 1014.2
20260831090030 54 243 0.0 0.0 0.00 0.00 0.00 83 1014.2
20260831084538 54 243 0.0 0.0 0.00 0.00 0.00 82 1014.4
20260831083035 55 259 0.0 1.0 0.00 0.00 0.00 82 1014.5
20260831081523 55 261 0.0 2.0 0.00 0.00 0.00 82 1014.6
20260831080044 55 242 0.0 3.0 0.00 0.00 0.00 82 1014.7
20260831074529 56 250 0.0 2.0 0.00 0.00 0.00 79 1014.9
20260831073034 57 257 0.0 0.0 0.00 0.00 0.00 78 1015.1
20260831071520 57 257 0.0 0.0 0.00 0.00 0.00 78 1015.1
20260831070007 58 257 0.0 0.0 0.00 0.00 0.00 77 1015.2
20260831064506 59 257 0.0 0.0 0.00 0.00 0.00 75 1015.4
20260831063010 59 257 0.0 0.0 0.00 0.00 0.00 73 1015.5
20260831061506 60 257 0.0 0.0 0.00 0.00 0.00 72 1015.6
20260831060009 61 257 0.0 2.0 0.00 0.00 0.00 71 1015.8
20260831054505 61 258 0.0 2.0 0.00 0.00 0.00 70 1015.9
20260831053011 62 288 0.0 0.0 0.00 0.00 0.00 69 1016.1
20260831051513 63 281 0.0 2.0 0.00 0.00 0.00 69 1016.3
20260831050014 63 284 0.0 2.0 0.00 0.00 0.00 68 1016.4
20260831044519 64 277 1.0 2.0 0.00 0.00 0.00 67 1016.5
20260831043009 64 290 1.0 2.0 0.00 0.00 0.00 66 1016.8
20260831041510 65 281 0.0 3.0 0.00 0.00 0.00 65 1016.7
20260831040012 66 275 1.0 6.0 0.00 0.00 0.00 63 1016.7
20260831034517 66 266 2.0 7.0 0.00 0.00 0.00 62 1016.6
20260831033004 67 275 1.0 9.0 0.00 0.00 0.00 61 1016.7
20260831031517 68 240 3.0 8.0 0.00 0.00 0.00 60 1016.6
20260831030014 68 347 2.0 11.0 0.00 0.00 0.00 58 1016.6
20260831024513 69 342 5.0 14.0 0.00 0.00 0.00 57 1016.5
20260831023014 70 38 3.0 12.0 0.00 0.00 0.00 55 1016.5
20260831021508 71 293 2.0 12.0 0.00 0.00 0.00 53 1016.7
20260831020010 73 346 4.0 9.0 0.00 0.00 0.00 51 1016.6
20260831014515 74 333 4.0 10.0 0.00 0.00 0.00 50 1016.6
20260831013024 74 244 3.0 9.0 0.00 0.00 0.00 49 1016.6
20260831011515 75 279 3.0 11.0 0.00 0.00 0.00 48 1016.6
20260831010015 75 270 2.0 10.0 0.00 0.00 0.00 48 1016.6
20260831004516 75 304 4.0 10.0 0.00 0.00 0.00 48 1017.1
20260831003017 75 286 3.0 9.0 0.00 0.00 0.00 47 1017.2
20260831001517 75 343 4.0 9.0 0.00 0.00 0.00 47 1017.2
20260831000014 75 286 4.0 8.0 0.00 0.00 0.00 46 1017.3
20260830234516 75 5 4.0 10.0 0.00 0.00 0.00 46 1017.4
20260830233021 74 324 4.0 10.0 0.00 0.00 0.00 46 1017.4
20260830231517 74 360 4.0 10.0 0.00 0.00 0.00 47 1017.7
20260830230021 74 341 3.0 10.0 0.00 0.00 0.00 47 1017.8
20260830224514 74 346 6.0 9.0 0.00 0.00 0.00 46 1018.1
20260830223018 74 352 3.0 10.0 0.00 0.00 0.00 48 1018.4
20260830221519 73 351 3.0 8.0 0.00 0.00 0.00 48 1018.7
20260830220021 73 352 5.0 12.0 0.00 0.00 0.00 49 1018.8
20260830214509 73 352 6.0 11.0 0.00 0.00 0.00 47 1019.0
20260830213019 72 243 1.0 11.0 0.00 0.00 0.00 51 1019.1
20260830211524 71 14 3.0 9.0 0.00 0.00 0.00 50 1019.4
20260830210031 71 352 6.0 11.0 0.00 0.00 0.00 50 1019.6
20260830204509 70 341 4.0 9.0 0.00 0.00 0.00 50 1019.8
20260830203014 70 360 4.0 7.0 0.00 0.00 0.00 53 1019.9
20260830201519 69 266 2.0 9.0 0.00 0.00 0.00 52 1020.2
20260830200028 69 40 0.0 9.0 0.00 0.00 0.00 54 1020.4
20260830194516 69 286 4.0 11.0 0.00 0.00 0.00 52 1020.5
20260830193009 68 34 3.0 11.0 0.00 0.00 0.00 56 1020.6
20260830191522 68 75 0.0 9.0 0.00 0.00 0.00 54 1020.8
20260830190026 67 9 2.0 8.0 0.00 0.00 0.00 55 1021.1
20260830184529 67 328 2.0 8.0 0.00 0.00 0.00 55 1021.3
20260830183008 67 336 1.0 9.0 0.00 0.00 0.00 56 1021.3
20260830181516 65 337 1.0 9.0 0.00 0.00 0.00 60 1021.3
20260830180022 64 360 4.0 8.0 0.00 0.00 0.00 59 1021.4
20260830174528 64 298 5.0 9.0 0.00 0.00 0.00 60 1021.4
20260830173028 63 360 2.0 8.0 0.00 0.00 0.00 62 1021.4
20260830171511 63 281 1.0 8.0 0.00 0.00 0.00 62 1021.4
20260830170024 62 352 1.0 3.0 0.00 0.00 0.00 68 1021.5
20260830164551 61 234 0.0 2.0 0.00 0.00 0.00 71 1021.4
20260830163032 60 330 0.0 2.0 0.00 0.00 0.00 72 1021.5
20260830161512 58 250 0.0 1.0 0.00 0.00 0.00 74 1021.6
20260830160019 57 18 0.0 1.0 0.00 0.00 0.00 77 1021.8
20260830154525 55 5 0.0 1.0 0.00 0.00 0.00 83 1021.8
20260830153032 53 23 0.0 0.0 0.00 0.00 0.00 85 1021.8
20260830151530 51 41 0.0 0.0 0.00 0.00 0.00 87 1022.0
20260830150015 48 78 0.0 0.0 0.00 0.00 0.00 90 1021.9
20260830144521 46 249 0.0 0.0 0.00 0.00 0.00 92 1022.0
20260830143032 45 255 0.0 1.0 0.00 0.00 0.00 93 1021.9
20260830141538 44 45 0.0 0.0 0.00 0.00 0.00 92 1021.9
20260830140030 44 46 0.0 0.0 0.00 0.00 0.00 92 1021.8
20260830134526 44 348 0.0 1.0 0.00 0.00 0.00 92 1021.8
20260830133027 44 251 0.0 0.0 0.00 0.00 0.00 92 1021.8
20260830131530 44 246 0.0 0.0 0.00 0.00 0.00 91 1021.8
20260830130050 44 246 0.0 0.0 0.00 0.00 0.00 91 1021.6
20260830124516 45 257 0.0 0.0 0.00 0.00 0.00 90 1021.5
20260830123026 45 270 0.0 0.0 0.00 0.00 0.00 90 1021.5
20260830121505 46 275 0.0 0.0 0.00 0.00 0.00 89 1021.5
20260830120008 47 309 0.0 2.0 0.00 0.00 0.00 89 1021.5